Regional Weather Roundup
Issued by NWS

Home | Current Version | Previous Version | Text Only | Print | Product List | Glossary On
Versions: 1 2 3 4 5 6 7 8 9 10 11 12 13 14 15 16 17 18 19 20 21 22 23 24 25 26 27 28 29 30 31 32 33 34 35 36 37 38 39 40 41 42 43 44 45 46 47 48 49 50
000
ASUS43 KTOP 030459
RWRKS

WEATHER ROUNDUP FOR KANSAS
NATIONAL WEATHER SERVICE GOODLAND KS
1200 AM CDT THU SEP 03 2015

NOTE:  "FAIR" INDICATES FEW OR NO CLOUDS BELOW 12,000 FEET WITH NO
SIGNIFICANT WEATHER AND/OR OBSTRUCTIONS TO VISIBILITY.

KSZ001>006-013>018-027>032-041>047-030600-
NORTHWEST KANSAS

CITY           SKY/WX    TMP DP  RH WIND       PRES   REMARKS
GOODLAND       MOCLDY    81  50  33 S13       29.91S
HAYS           CLEAR     82  57  42 S16       29.87S
HILL CITY      PTCLDY    84  58  40 S15G21    29.85S
RUSSELL        CLEAR     81  60  48 S15       29.86R
$$

KSZ061>065-074>080-084>089-030600-
SOUTHWEST KANSAS

CITY           SKY/WX    TMP DP  RH WIND       PRES   REMARKS
DODGE CITY     MOCLDY    78  57  48 S16       29.93R
ELKHART          N/A     74  55  51 S10         N/A
GARDEN CITY    MOCLDY    76  58  53 S12       29.92R
GREAT BEND     PTCLDY    79  61  53 S15       29.89R
LIBERAL        CLEAR     79  55  44 S14       29.96S
$$

KSZ066>073-081>083-090>101-030600-
SOUTHEAST KANSAS

CITY           SKY/WX    TMP DP  RH WIND       PRES   REMARKS
CHANUTE        CLEAR     73  69  87 S7        29.97S
COFFEYVILLE    CLEAR     74  68  81 S7        29.96S
HUTCHINSON     CLEAR     79  63  57 SE13      29.92R
NEWTON         CLEAR     77  63  61 S12       29.96S
PARSONS        CLEAR     74  69  85 SE3       29.98S
WICHITA INTL   PTCLDY    77  66  68 S12       29.93S
WICHITA JABRA  CLEAR     77  66  68 S12       29.94R
WINFIELD       CLEAR     76  66  71 S9        29.95S
$$

KSZ007>012-019>026-033>040-048>060-102>105-030600-
NORTHEAST KANSAS

CITY           SKY/WX    TMP DP  RH WIND       PRES   REMARKS
CONCORDIA      CLEAR     78  65  63 S14       29.88R
EMPORIA        CLEAR     74  68  81 S12       29.95S
LAWRENCE       CLEAR     75  70  84 S7        29.94F
MANHATTAN      CLEAR     80  67  64 S8        29.90S
OLATHE IND     CLEAR     74  69  85 S7        29.97S
OLATHE EXE     CLEAR     73  69  87 S5        29.97S
SALINA         CLEAR     82  64  54 S15G23    29.88S
TOPEKA BILLARD CLEAR     79  68  69 S10       29.93S
TOPEKA FORBES  CLEAR     77  68  73 S8        29.94S
$$


USA.gov is the U.S. government's official web portal to all federal, state and local government web resources and services.